カタログに戻る

OPS 4682 DEB

運用中PO
NORAD 38397·DEBRIS·🇺🇸 United States

打ち上げ Apr 3, 1965 から Vandenberg Space Force Base

Loading…

次のパス (今後24時間)

TLE

最新Source: Space-Track

元期: Sep 14, 2026, 07:28 UTC

1 38397U 65027DA  26257.31112562  .00000082  00000-0  24632-3 0  9993
2 38397  90.2591  19.6638 0039775  21.9921 338.2897 13.00034996674435

AllMySatでOPS 4682 DEBをリアルタイム追跡

Download on the App Store